Weather in Jackson

United States     32°18′31″N   90°11′35″W
temp.,
°C
wind,
m/s
gust,
m/s
humid.,
%
clouds,
%
prec.,
mm/h
press.,
hPa
HPBL,
m
16 september, thu
thu1601:00+22ene41095100 0.1 1011622
04:00+22ene4994100 0.0 1011509
07:00+21ene3896100 0.1 1011439
10:00+23ene3896100 0.3 1013451
13:00+25ene458457 0.5 1012642
16:00+27ene457570 0.4 1011924
19:00+25ene378723 0.7 1011424
22:00+23ene38977 1.4 1013280
17 september, fri
fri1701:00+23se379950 1.6 1012288
04:00+22se389999 0.0 1013391
07:00+23se399777 0.1 1014510
10:00+25sse488677 0.0 1015626
13:00+27sse468115 1.4 1015829
16:00+27s468172 2.3 1014814
19:00+24sse379431 3.4 1014297
22:00+23sse399796 0.1 1016318
18 september, sat
sat1801:00+23s289991 0.1 1015287
04:00+22sse369897 0.0 1016296
07:00+22sse3696100 0.1 1017360
10:00+24ssw3585100 0.0 1018608
13:00+29s246638 0.3 10171226
16:00+29sse336718 1.7 10151062
19:00+24se269082 3.3 1016128
22:00+23se269399 0.0 1017157
19 september, sun
sun1901:00+22sse289799 0.3 1017245
04:00+22se2499100 3.4 1016171
07:00+22ese129899 6.3 101666
10:00+25se248433 0.1 1018541
13:00+28sse456842 0.6 10161265
16:00+25sse478697 1.8 1015738
19:00+24sse4888100 1.9 1015497
22:00+22sse31196100 1.9 1016411
20 september, mon
mon2001:00+21se399852 1.9 1016342
04:00+21sse389990 1.2 1016296
07:00+21sse389827 1.2 1016241
10:00+25sse468333 0.0 1017572
13:00+28s457054 0.9 10161146
16:00+27s358018 2.1 1015813
19:00+24s379183 6.6 1015191
22:00+23s38955 0.9 1016218